Weather History for Miami, FL

Change the Weather History Date:

Sunday, December 22, 2013

  Actual Average Record
Temperature  
Mean Temperature 80 °F 70 °F  
Max Temperature 83 °F 77 °F 86 °F (1948)
Min Temperature 76 °F 62 °F 39 °F (1960)
Degree Days  
Heating Degree Days 0 1  
Month to date heating degree days 0 18  
Since 1 July heating degree days 2 21  
Cooling Degree Days 15 6  
Month to date cooling degree days 225 152  
Year to date cooling degree days 4766 4524  
Growing Degree Days 28 (Base 50)    
Moisture  
Dew Point 71 °F    
Average Humidity 74    
Maximum Humidity 82    
Minimum Humidity 65    
Precipitation  
Precipitation 0.00 in 0.06 in 1.83 in (1971)
Month to date precipitation 0.46 1.51  
Year to date precipitation 66.21 61.37  
Snow  
Snow 0.00 in - - ()
Month to date snowfall 0.0  
Since 1 July snowfall 0.0  
Snow Depth 0.00 in    
Sea Level Pressure  
Sea Level Pressure 30.13 in    
Wind  
Wind Speed 13 mph (ESE)    
Max Wind Speed 20 mph    
Max Gust Speed 28 mph    
Visibility 10 miles    
Events      
T = Trace of Precipitation, MM = Missing Value Source: NWS Daily Summary

Daily Weather History Graph

Daily Weather History Graph

Search for Another Location

Airport:

Trip Planner

Search our weather history database for the weather conditions in past years. The results will help you decide how hot, cold, wet, or windy it might be!

Date:

Astronomy

Dec. 22, 2013 Rise Set
Actual Time 7:04 AM EST 5:35 PM EST
Civil Twilight 6:38 AM EST 6:01 PM EST
Nautical Twilight 6:10 AM EST 6:29 PM EST
Astronomical Twilight 5:42 AM EST 6:58 PM EST
Moon 10:19 PM EST (12/22) 10:24 AM EST (12/22)
Length of Visible Light 11h 22m
Length of Day
10h 31m
Waning Gibbous, 77% of the Moon is Illuminated
Dec 22
Waning Gibbous
Dec 25
Last Quarter
Jan 1
New
Jan 7
First Quarter
Jan 15
Full

Hourly Weather History & Observations

Time (EST) Temp. Heat Index Dew Point Humidity Pressure Visibility Wind Dir Wind Speed Gust Speed Precip Events Conditions
12:53 AM 79.0 °F - 70.0 °F 74% 30.11 in 10.0 mi ESE 15.0 mph 20.7 mph N/A   Partly Cloudy
1:53 AM 77.0 °F - 70.0 °F 79% 30.11 in 10.0 mi ESE 11.5 mph - N/A   Scattered Clouds
2:53 AM 77.0 °F - 70.0 °F 79% 30.09 in 10.0 mi SE 12.7 mph - N/A   Scattered Clouds
3:53 AM 77.0 °F - 70.0 °F 79% 30.10 in 10.0 mi ESE 13.8 mph - N/A   Scattered Clouds
4:53 AM 77.0 °F - 70.0 °F 79% 30.09 in 10.0 mi ESE 12.7 mph - N/A   Scattered Clouds
5:53 AM 77.0 °F - 70.0 °F 79% 30.10 in 10.0 mi SE 13.8 mph - N/A   Scattered Clouds
6:53 AM 77.0 °F - 69.1 °F 76% 30.12 in 10.0 mi ESE 12.7 mph 19.6 mph N/A   Scattered Clouds
7:53 AM 77.0 °F - 70.0 °F 79% 30.14 in 10.0 mi SE 12.7 mph 18.4 mph N/A   Mostly Cloudy
8:53 AM 79.0 °F - 70.0 °F 74% 30.15 in 10.0 mi SE 15.0 mph 23.0 mph N/A   Mostly Cloudy
9:53 AM 81.0 °F 84.4 °F 70.0 °F 69% 30.17 in 10.0 mi ESE 18.4 mph 27.6 mph N/A   Mostly Cloudy
10:53 AM 82.0 °F 85.9 °F 70.0 °F 67% 30.16 in 10.0 mi SE 12.7 mph 23.0 mph N/A   Scattered Clouds
11:53 AM 82.0 °F 85.9 °F 70.0 °F 67% 30.14 in 10.0 mi ESE 18.4 mph 27.6 mph N/A   Mostly Cloudy
12:53 PM 82.0 °F 85.9 °F 70.0 °F 67% 30.12 in 10.0 mi SE 17.3 mph 24.2 mph N/A   Mostly Cloudy
1:53 PM 81.0 °F 84.9 °F 71.1 °F 72% 30.11 in 10.0 mi SE 16.1 mph 24.2 mph N/A   Mostly Cloudy
2:53 PM 81.0 °F 84.9 °F 71.1 °F 72% 30.11 in 10.0 mi ESE 13.8 mph 19.6 mph N/A   Mostly Cloudy
3:53 PM 81.0 °F 84.9 °F 71.1 °F 72% 30.11 in 10.0 mi ESE 12.7 mph 19.6 mph N/A   Mostly Cloudy
4:53 PM 79.0 °F - 70.0 °F 74% 30.12 in 10.0 mi ESE 11.5 mph - N/A   Mostly Cloudy
5:53 PM 78.1 °F - 70.0 °F 76% 30.13 in 10.0 mi ESE 9.2 mph - N/A   Mostly Cloudy
6:53 PM 78.1 °F - 71.1 °F 79% 30.14 in 10.0 mi East 10.4 mph - N/A   Mostly Cloudy
7:53 PM 78.1 °F - 71.1 °F 79% 30.16 in 10.0 mi East 9.2 mph - N/A   Scattered Clouds
8:53 PM 77.0 °F - 72.0 °F 84% 30.16 in 10.0 mi ESE 8.1 mph - N/A   Scattered Clouds
9:36 PM 78.8 °F - 71.6 °F 78% 30.16 in 10.0 mi ESE 5.8 mph - N/A   Mostly Cloudy
9:53 PM 78.1 °F - 72.0 °F 81% 30.17 in 10.0 mi ESE 10.4 mph - N/A   Mostly Cloudy
10:53 PM 78.1 °F - 72.0 °F 81% 30.17 in 10.0 mi ESE 11.5 mph - N/A   Scattered Clouds
10:58 PM 78.8 °F - 71.6 °F 78% 30.16 in 10.0 mi ESE 10.4 mph - N/A   Mostly Cloudy
11:53 PM 78.1 °F - 72.0 °F 81% 30.17 in 9.0 mi ESE 9.2 mph - N/A   Mostly Cloudy